Vorticity
4 5 5 6 7 8 7 7 6 5 5 4 3 3 3 3 3 4 4 4 4 5 5 5 5 5 5 6 6 6 6 5 5 5 5 6 6 7 8 9 11 12 9 8 8 10 10 9 6 3 0 -0 0 2 5 7 9 7 5 6 9 12 13 12 10 7 8 12 13 11 9 6 6 6 4 4 5 5 4 3 4 5 5 4 4
3 4 4 5 6 7 6 6 6 5 6 6 5 4 4 4 4 4 4 4 5 5 6 6 6 6 6 6 6 5 5 5 5 6 7 7 8 9 9 11 12 9 8 9 10 10 9 6 2 -1 -0 1 3 5 8 8 7 5 6 10 13 13 12 9 8 9 12 13 10 8 7 6 7 5 3 5 6 5 3 3 5 6 5 4 5
5 4 4 5 6 7 6 6 7 7 6 6 6 5 4 4 4 4 5 5 6 6 6 7 6 6 6 5 5 5 5 6 7 7 8 9 9 9 10 12 10 9 9 10 10 8 5 1 -1 -0 2 3 6 8 8 7 5 6 10 13 12 11 9 8 9 12 13 10 7 7 7 7 5 3 4 6 6 5 4 4 5 6 5 5 6
7 6 5 5 5 5 5 6 6 6 6 6 5 5 5 4 4 5 5 5 7 7 7 7 6 6 6 5 5 6 7 8 9 9 10 8 8 10 12 11 9 9 9 8 7 4 0 -1 -0 2 4 6 8 9 6 5 7 11 13 12 11 9 7 9 12 13 10 7 7 7 7 6 4 4 6 6 5 5 5 6 6 5 4 6 7
8 8 6 6 5 4 5 5 5 6 6 5 6 6 6 6 6 6 7 7 8 7 7 6 6 5 5 6 7 8 9 10 10 9 9 8 10 12 11 10 8 8 8 6 4 0 -1 1 2 3 6 8 8 6 5 7 11 12 11 10 9 7 8 12 13 9 6 6 6 6 6 5 4 5 7 6 5 5 4 5 5 4 5 5 4
8 8 8 7 7 6 5 6 6 6 7 6 7 8 7 7 8 8 9 8 7 6 6 6 6 6 7 8 8 9 10 10 9 9 10 11 11 11 8 7 6 6 6 4 1 0 1 2 3 6 8 8 6 5 7 11 12 11 9 8 7 7 11 13 9 6 6 6 6 6 5 4 5 7 6 6 6 6 5 5 4 5 6 4 3
6 6 7 7 8 9 8 7 7 7 7 8 8 9 9 9 9 8 8 7 6 6 5 6 6 7 8 8 9 9 9 9 9 10 10 9 9 7 6 6 7 6 4 1 1 2 3 3 6 8 8 5 5 7 11 12 10 9 8 6 7 10 12 9 6 6 6 5 6 6 5 5 6 6 5 5 6 6 6 6 5 5 4 4 5
6 6 7 8 8 8 7 7 8 8 8 9 8 9 9 9 9 8 6 6 6 6 6 7 8 8 9 9 9 9 9 9 9 8 7 7 6 5 6 6 6 3 1 2 3 3 3 6 8 8 5 5 8 11 12 11 9 7 6 7 10 11 9 6 6 6 5 5 6 5 6 7 6 5 5 5 5 4 5 5 6 7 6 6 8
6 6 7 8 8 8 8 8 9 8 8 8 8 9 8 8 8 8 7 7 7 8 9 9 9 10 10 10 9 9 8 7 6 6 7 7 6 6 7 5 3 2 2 4 3 3 6 8 7 5 5 8 11 12 11 9 7 6 7 9 11 9 6 6 7 6 5 6 6 6 7 6 5 5 5 5 4 4 5 6 6 7 6 7 7
8 8 8 8 7 8 8 8 8 8 8 8 8 8 7 6 7 6 6 7 7 8 9 9 10 10 9 7 6 6 6 6 7 7 7 7 6 6 5 3 3 4 5 4 4 6 8 6 5 5 7 11 11 10 8 7 6 7 9 11 9 5 5 7 6 5 5 6 6 6 7 5 5 5 5 5 6 5 7 7 6 6 6 7 7
10 9 9 9 9 9 8 8 7 7 7 7 6 6 5 5 5 5 6 7 8 8 8 8 7 6 4 5 6 8 9 9 8 8 7 6 5 4 3 4 5 5 5 6 7 8 6 4 5 7 10 12 10 8 7 6 7 8 10 9 6 4 6 6 5 5 5 6 6 7 6 4 5 6 5 6 6 6 7 7 6 7 7 7 8
12 12 10 8 7 8 7 7 8 8 9 9 9 9 8 8 8 8 9 8 7 5 4 3 2 3 5 8 9 10 9 8 8 7 5 4 4 4 6 6 6 6 6 8 7 5 4 5 7 10 11 11 7 6 6 6 8 10 9 6 4 5 7 5 5 5 5 7 7 6 5 4 5 6 6 6 6 7 8 6 5 7 7 7 9
8 11 14 14 13 12 12 12 12 11 11 10 10 9 8 8 8 8 7 5 4 4 4 4 6 8 10 10 9 9 7 7 6 4 4 5 6 7 8 7 7 7 7 6 4 4 5 7 10 12 11 8 6 6 6 8 10 9 6 5 5 6 7 6 6 6 7 8 7 5 5 6 7 7 6 7 7 7 7 5 4 6 6 8 10
3 3 5 8 9 10 10 10 9 8 7 7 7 7 8 9 9 8 7 6 6 7 7 8 10 10 10 8 7 6 5 4 5 5 7 8 8 8 7 7 7 6 5 4 3 5 8 11 13 10 8 6 5 6 8 10 10 7 4 5 6 7 7 5 6 8 9 8 6 5 7 7 7 7 6 7 7 7 7 6 5 7 7 9 11
10 8 7 6 6 6 6 7 7 8 9 9 9 10 10 10 8 7 6 5 6 7 8 9 9 8 7 5 4 4 4 6 8 9 9 8 7 7 6 6 5 4 4 4 5 9 12 12 10 7 6 6 6 8 11 10 7 5 5 6 7 7 6 5 7 9 8 6 6 6 7 6 6 7 6 7 8 7 7 7 7 8 8 10 11
11 11 11 10 11 10 9 9 8 7 6 6 6 7 6 6 6 5 6 7 8 9 9 9 7 5 4 4 5 7 9 11 10 9 8 7 6 6 5 4 5 4 4 6 9 12 12 9 7 5 5 6 8 10 10 6 5 7 6 6 7 6 5 6 8 9 6 5 6 6 6 6 6 6 6 8 9 7 7 7 7 8 8 9 10
13 11 10 9 9 8 7 6 5 4 4 5 6 7 7 8 8 8 9 9 9 9 7 6 5 5 6 8 11 12 11 10 8 6 6 5 4 5 4 4 4 4 6 10 12 12 8 6 6 5 6 8 10 9 7 6 7 7 6 7 6 4 5 8 9 7 4 5 6 6 6 6 6 7 8 9 9 7 6 7 7 8 9 9 10
15 16 14 12 11 10 9 8 8 9 10 10 10 9 9 9 8 8 8 7 7 7 6 7 9 10 13 13 12 10 8 7 6 5 5 5 4 4 4 4 5 8 11 12 10 7 6 6 6 6 8 10 9 7 7 7 7 6 7 7 4 3 7 8 6 5 5 7 7 6 7 7 6 8 10 9 8 6 6 7 7 8 10 9 11
4 6 8 9 10 10 10 10 10 11 11 10 9 9 8 8 8 7 8 7 8 9 10 13 14 14 13 10 7 6 5 5 5 4 5 5 4 4 4 6 10 12 11 9 6 5 6 6 7 8 9 8 8 9 9 7 6 7 7 4 3 6 9 6 3 5 6 7 7 6 6 6 7 9 9 8 6 6 6 7 7 9 10 10 13
-0 -0 0 3 5 7 9 10 10 10 9 8 8 7 6 5 4 5 6 8 10 12 13 13 12 9 7 5 5 5 5 5 5 5 5 4 4 6 8 11 12 10 7 6 5 6 6 7 9 9 7 8 10 10 7 6 7 7 4 3 6 8 6 3 4 6 6 5 5 5 5 7 8 9 8 7 6 6 7 8 8 10 10 10 14
8 8 8 8 8 8 8 7 5 5 4 2 2 3 3 5 7 10 12 14 14 13 11 9 7 6 5 5 6 6 5 5 5 5 5 6 8 10 11 10 8 6 5 6 6 7 8 9 9 7 8 11 11 7 6 7 6 3 3 6 9 6 3 4 6 7 6 5 5 5 6 8 9 9 7 6 6 8 9 8 8 9 10 12 15
8 9 8 8 7 6 6 5 5 6 7 8 10 12 14 16 17 17 16 14 12 10 8 8 7 7 7 7 6 6 6 6 6 7 8 9 9 10 8 6 5 6 6 7 7 8 9 8 7 8 11 11 8 6 7 6 3 3 6 8 6 4 4 7 7 6 5 5 5 6 8 9 10 8 7 6 8 9 9 8 7 9 12 14 14
13 13 11 11 12 12 13 14 15 17 18 18 19 18 16 15 14 13 12 11 10 10 9 9 8 8 8 7 7 7 8 8 9 9 9 8 7 7 6 6 6 7 7 8 9 9 8 7 8 11 11 8 6 6 5 3 3 7 8 6 4 6 7 7 6 5 5 5 6 8 10 10 9 7 6 6 9 10 9 8 8 10 14 16 12
22 21 21 21 20 19 19 19 18 17 16 15 14 13 12 12 12 12 12 11 11 10 10 10 9 9 10 10 10 10 10 9 8 7 6 6 6 6 6 7 7 7 9 10 9 7 8 9 10 9 7 5 5 4 4 5 8 8 6 5 7 8 7 6 5 5 5 6 9 10 10 10 8 6 6 8 10 11 8 8 9 11 16 17 12
17 16 16 16 15 14 14 13 12 12 12 12 12 12 12 12 12 12 11 11 11 11 11 11 11 11 11 10 9 8 7 6 5 5 6 7 7 7 7 8 8 9 10 9 8 9 11 11 8 6 5 4 4 5 7 8 8 6 6 7 8 6 6 6 5 6 6 8 9 10 10 9 7 6 8 10 10 8 7 8 11 13 16 16 12
10 10 10 10 10 11 11 11 12 12 12 12 13 12 12 12 12 12 12 12 11 10 10 9 9 8 8 7 6 6 5 6 7 7 7 7 7 8 8 9 10 10 10 10 11 12 10 7 4 4 4 4 5 7 8 7 6 7 8 8 6 5 6 6 5 6 8 8 9 11 10 7 6 7 9 9 7 6 8 12 14 15 16 14 11
10 11 12 12 13 13 13 14 14 13 13 13 12 12 11 11 10 9 9 9 8 7 7 7 7 8 7 7 7 7 7 8 8 8 8 8 9 10 10 10 10 10 9 10 10 8 4 2 3 4 2 3 6 6 6 7 8 9 8 6 6 6 6 6 6 7 8 8 10 11 9 6 7 8 7 7 7 8 13 16 15 14 14 11 9
12 12 11 11 11 10 10 10 9 8 9 8 8 8 8 7 8 8 8 8 8 8 9 8 8 8 8 8 8 8 8 9 9 9 10 10 10 10 9 8 8 8 8 7 4 2 2 3 4 4 4 5 6 6 7 9 9 8 7 6 6 6 6 6 7 7 7 9 11 11 8 6 8 8 6 7 10 12 16 17 14 12 13 10 9
7 7 7 7 7 7 8 8 9 9 10 10 10 11 10 10 11 10 10 10 10 9 10 9 9 9 9 9 10 10 10 10 10 10 11 11 10 8 7 7 8 6 4 3 1 2 5 6 5 6 7 7 7 7 8 9 7 6 7 6 6 6 6 6 7 7 8 11 11 9 8 8 8 7 7 9 13 15 16 15 12 10 11 11 9
10 10 11 11 12 12 12 12 12 12 11 11 11 11 11 11 11 11 11 11 10 10 11 10 10 11 11 11 12 12 12 12 11 10 10 9 7 8 8 8 6 4 3 4 5 7 8 7 6 8 8 7 7 7 7 6 6 6 6 6 5 5 6 6 7 7 9 11 10 9 9 8 7 7 9 12 16 17 15 12 10 10 11 11 10
12 12 12 12 12 12 12 11 11 11 11 11 11 11 11 11 11 11 11 11 11 11 12 12 12 12 12 12 12 11 11 11 9 9 9 9 9 10 9 7 7 7 8 10 10 9 8 7 7 7 6 5 6 6 5 5 6 5 4 5 5 5 6 7 7 9 10 11 11 11 9 7 7 9 11 14 17 16 12 10 9 9 9 11 12
10 10 10 10 10 11 10 10 11 10 11 11 10 10 10 10 10 10 9 9 10 10 10 11 10 10 10 9 9 9 9 8 8 8 10 10 10 11 10 11 11 11 10 10 9 7 6 5 5 5 5 4 4 4 4 4 4 4 4 5 5 6 7 7 8 10 10 10 11 11 9 6 7 10 12 15 17 14 11 9 8 8 9 12 15
9 9 9 9 9 8 8 8 8 8 9 9 9 10 10 9 9 9 8 9 9 8 8 8 7 7 7 7 7 7 8 8 9 9 10 11 12 12 11 9 8 7 7 8 7 5 4 3 3 4 4 4 4 4 4 4 5 5 5 6 7 7 7 8 9 10 10 10 10 10 8 6 8 11 12 15 16 13 11 10 7 7 10 14 16
10 9 9 8 6 6 6 6 7 8 9 9 10 10 10 10 10 10 10 9 9 8 8 7 7 7 8 7 8 8 8 8 10 11 10 11 10 9 7 6 6 8 9 7 5 4 3 4 4 4 4 4 4 4 4 5 6 6 7 7 8 8 8 9 10 11 11 10 9 8 8 7 8 11 14 15 16 13 11 9 6 6 11 15 16
7 6 5 4 4 5 6 6 7 7 7 8 9 10 10 10 10 11 10 9 8 8 8 7 8 9 8 9 10 10 9 9 10 10 9 9 8 7 8 9 10 9 8 7 5 4 4 4 5 5 5 5 5 5 5 6 7 7 8 8 9 9 8 9 11 11 10 8 7 7 7 7 9 13 15 16 16 13 10 9 7 6 10 14 17
5 4 4 4 4 4 4 3 3 3 4 5 6 7 8 9 10 10 10 9 9 10 9 9 10 10 10 13 13 10 8 9 9 9 11 10 9 8 9 10 8 7 7 6 5 4 5 5 6 6 5 4 5 6 7 7 7 8 9 9 9 10 10 10 11 11 8 7 8 7 7 8 11 14 17 18 16 12 10 9 7 6 7 14 19
6 5 4 4 4 3 2 1 0 1 2 3 5 6 7 8 9 10 10 10 10 11 11 11 12 11 13 15 12 8 8 8 8 10 11 10 7 7 8 8 8 7 6 6 4 5 7 7 6 6 5 5 7 7 7 8 9 9 10 10 10 11 10 9 10 9 7 7 8 7 7 11 13 16 19 19 15 11 9 8 7 5 6 14 22
8 6 5 5 5 5 3 1 -0 0 1 1 3 5 6 8 9 9 10 10 11 11 12 12 11 13 15 14 10 7 7 7 6 9 9 7 7 8 8 8 7 6 6 6 6 8 8 5 4 5 5 6 8 8 8 10 10 9 10 10 11 11 10 8 8 7 7 8 9 7 10 14 15 18 21 19 13 10 9 7 6 4 5 15 25
9 9 8 7 6 6 5 3 1 0 1 2 4 6 8 9 10 10 11 12 12 12 12 11 11 13 12 10 8 7 6 6 7 8 8 8 8 8 8 7 7 7 7 7 6 5 5 4 5 6 7 8 10 9 9 10 9 9 11 11 10 10 8 6 7 7 8 9 9 9 12 16 16 18 21 18 13 10 7 5 6 5 6 18 27
10 10 10 10 9 8 6 3 1 1 2 4 6 7 7 7 8 8 10 11 11 12 12 11 11 11 9 8 8 8 6 6 8 8 8 9 9 8 8 8 7 6 5 5 5 5 6 6 6 7 8 10 10 9 9 9 10 12 12 9 8 8 7 7 8 8 9 10 10 11 14 15 15 18 20 18 13 8 4 5 7 5 9 23 27
9 9 10 10 8 6 5 2 2 3 4 4 5 5 4 5 7 8 10 11 11 11 11 11 11 10 8 7 8 7 6 7 8 8 8 9 8 8 9 7 6 5 5 5 6 6 6 6 7 8 9 10 10 10 11 11 11 11 9 7 8 8 7 7 8 8 10 10 10 12 16 14 12 17 21 17 10 3 3 8 9 5 12 25 24
9 9 9 9 8 7 5 4 3 3 3 3 3 3 3 4 6 7 8 9 9 10 10 11 11 9 8 9 9 8 7 9 10 9 10 10 9 9 9 8 6 6 6 7 7 6 6 8 9 10 11 11 11 11 10 9 9 9 8 8 8 7 7 9 9 9 11 10 9 15 20 15 10 15 19 14 6 2 5 11 11 7 13 23 19
10 9 8 8 8 7 5 5 4 4 4 4 3 2 3 5 7 7 8 9 9 9 9 9 9 8 8 9 10 9 10 11 11 10 9 9 9 9 9 8 8 7 7 7 7 7 8 10 11 11 11 11 10 9 8 8 8 9 8 7 8 8 8 10 9 11 12 11 12 19 21 12 7 10 12 8 6 6 10 14 11 8 13 19 15
10 9 8 7 7 5 4 4 4 4 5 4 3 3 4 5 6 7 8 9 9 8 8 8 8 8 9 10 10 10 10 10 8 7 7 8 9 9 9 8 8 8 8 8 8 7 9 10 11 11 11 10 9 8 7 7 8 7 7 8 8 9 10 10 11 12 14 13 16 19 16 12 12 12 11 11 12 12 14 15 11 7 12 16 14
10 8 7 6 5 4 3 3 4 4 4 3 3 4 5 6 7 8 9 9 9 9 9 9 9 9 9 9 8 7 7 6 5 6 7 7 7 7 8 8 8 8 9 8 7 7 9 9 10 11 10 9 7 6 6 8 8 8 9 10 10 10 11 11 12 14 15 15 17 18 17 17 17 15 16 21 19 12 13 14 8 6 12 15 12
6 5 5 5 5 5 5 6 6 5 5 4 4 5 6 6 7 8 8 8 8 8 7 7 7 6 6 6 5 5 5 5 6 6 6 7 8 9 9 8 8 7 8 7 6 7 8 9 10 10 8 7 6 7 7 9 9 9 10 11 11 11 12 12 15 17 16 16 19 20 20 19 16 14 18 19 10 6 14 15 6 5 12 14 10
5 5 6 7 7 7 7 7 7 6 6 5 5 6 6 6 7 7 7 7 7 7 7 6 6 5 6 6 6 6 6 6 6 7 8 9 9 8 7 7 7 7 7 7 8 9 10 9 9 9 7 6 7 8 9 10 10 11 12 12 13 14 14 15 18 18 17 18 21 20 17 14 11 9 10 7 2 9 19 15 4 7 14 12 9
5 6 6 6 7 7 7 6 6 5 5 5 5 5 6 6 7 7 8 7 7 7 7 7 6 6 6 6 6 7 7 7 7 8 8 7 8 8 8 9 9 8 9 9 9 9 10 9 9 8 8 9 9 10 11 12 12 13 14 15 16 17 17 18 19 18 18 19 20 18 16 15 12 9 10 13 18 25 22 9 3 11 14 8 7
6 5 5 5 6 5 5 6 5 5 5 5 6 7 7 7 8 8 8 7 7 7 6 6 6 6 6 6 6 6 7 8 8 8 8 9 9 9 8 7 7 7 8 9 9 9 10 10 10 10 10 11 11 12 13 14 15 16 18 19 19 19 20 20 19 19 19 19 19 19 20 17 13 12 18 24 27 24 15 6 7 13 12 7 8
5 5 5 6 6 6 6 6 5 5 6 6 6 7 7 7 8 7 7 7 7 7 7 7 7 7 7 8 8 9 10 10 9 9 8 7 6 6 6 7 8 9 10 10 10 11 10 10 11 11 11 12 13 14 16 18 19 20 20 20 20 20 20 20 19 19 19 19 19 20 18 13 10 15 20 21 18 14 10 8 11 13 10 9 10
5 5 5 5 5 5 5 5 5 6 6 6 7 7 7 7 8 8 8 8 8 8 8 8 9 10 10 10 10 9 8 6 5 5 5 6 8 10 11 12 12 12 11 11 10 10 10 11 11 12 14 15 18 19 21 22 22 21 20 20 20 20 19 19 19 19 18 18 20 21 19 18 20 22 19 13 10 11 11 11 13 13 10 10 11
Height
5806 5806 5807 5807 5807 5807 5806 5806 5806 5806 5806 5806 5806 5806 5806 5806 5806 5805 5804 5802 5801 5800 5799 5798 5797 5796 5794 5792 5791 5789 5787 5786 5784 5782 5780 5778 5777 5774 5772 5770 5768 5766 5763 5761 5758 5756 5753 5751 5748 5745 5742 5740 5737 5734 5731 5728 5724 5721 5718 5715 5712 5708 5705 5701 5698 5695 5690 5684 5680 5677 5673 5670 5666 5662 5659 5655 5650 5644 5638 5631 5624 5618 5610 5602 5596
5800 5800 5800 5800 5801 5801 5800 5800 5800 5800 5800 5800 5800 5800 5801 5800 5800 5799 5798 5796 5795 5794 5793 5792 5790 5789 5788 5787 5785 5783 5781 5779 5778 5776 5774 5772 5770 5768 5766 5764 5762 5759 5757 5755 5752 5750 5747 5744 5742 5739 5736 5733 5730 5727 5724 5720 5717 5714 5710 5707 5704 5700 5697 5694 5691 5688 5684 5678 5673 5670 5666 5663 5659 5655 5652 5648 5644 5638 5632 5625 5617 5611 5603 5595 5586
5793 5793 5794 5794 5794 5794 5794 5794 5794 5794 5794 5794 5794 5794 5794 5794 5793 5792 5791 5790 5789 5788 5787 5786 5784 5783 5782 5780 5779 5777 5775 5773 5771 5770 5768 5766 5764 5762 5760 5758 5755 5753 5751 5748 5746 5743 5741 5738 5735 5732 5729 5726 5723 5720 5716 5713 5710 5706 5703 5699 5696 5692 5689 5686 5683 5680 5678 5673 5667 5663 5659 5655 5651 5648 5644 5640 5636 5631 5626 5619 5611 5603 5596 5588 5579
5786 5786 5787 5788 5788 5788 5788 5788 5788 5788 5788 5788 5788 5788 5788 5787 5786 5786 5785 5784 5783 5782 5781 5780 5778 5777 5776 5774 5772 5771 5769 5767 5765 5763 5761 5759 5757 5755 5754 5751 5749 5747 5744 5742 5739 5737 5734 5731 5729 5726 5723 5719 5716 5713 5709 5706 5702 5699 5695 5692 5688 5685 5682 5678 5675 5672 5669 5666 5661 5656 5651 5647 5643 5640 5636 5633 5628 5623 5617 5611 5604 5596 5588 5579 5572
5779 5780 5780 5781 5781 5781 5782 5782 5782 5782 5782 5782 5781 5781 5781 5780 5780 5780 5779 5778 5777 5776 5775 5774 5772 5771 5769 5768 5766 5764 5762 5761 5759 5757 5755 5753 5751 5749 5747 5745 5743 5740 5738 5735 5733 5730 5728 5725 5722 5719 5716 5712 5709 5705 5702 5698 5694 5691 5688 5684 5681 5677 5674 5671 5667 5664 5660 5657 5654 5649 5644 5639 5635 5630 5626 5624 5621 5617 5611 5604 5596 5588 5580 5571 5562
5772 5773 5773 5774 5774 5775 5775 5775 5775 5775 5775 5775 5775 5775 5774 5774 5774 5773 5772 5772 5771 5769 5768 5767 5766 5764 5762 5761 5759 5757 5756 5754 5752 5750 5748 5746 5745 5743 5741 5739 5736 5734 5731 5729 5726 5724 5721 5718 5715 5712 5709 5706 5702 5698 5695 5691 5687 5684 5680 5677 5673 5669 5666 5663 5660 5656 5652 5648 5645 5642 5637 5632 5627 5623 5617 5612 5609 5606 5604 5601 5593 5584 5574 5564 5555
5766 5766 5767 5767 5767 5768 5768 5768 5768 5768 5768 5768 5768 5768 5768 5767 5767 5767 5766 5765 5764 5763 5761 5760 5759 5757 5755 5754 5752 5751 5749 5747 5745 5743 5742 5740 5738 5736 5734 5732 5730 5727 5725 5722 5720 5717 5715 5711 5708 5705 5702 5699 5695 5691 5687 5684 5680 5677 5673 5670 5666 5662 5659 5655 5652 5648 5644 5640 5637 5634 5630 5624 5620 5615 5609 5603 5598 5591 5588 5587 5585 5579 5571 5560 5548
5759 5759 5760 5760 5761 5761 5761 5761 5761 5761 5761 5761 5761 5761 5761 5761 5760 5760 5759 5758 5757 5756 5755 5753 5752 5750 5749 5747 5745 5744 5742 5740 5739 5737 5735 5734 5732 5730 5728 5725 5723 5721 5718 5716 5713 5711 5708 5705 5701 5698 5695 5692 5688 5684 5680 5677 5673 5670 5666 5663 5658 5655 5651 5648 5644 5640 5636 5632 5629 5626 5622 5617 5612 5608 5602 5596 5590 5583 5576 5571 5568 5564 5561 5554 5540
5752 5752 5753 5754 5754 5754 5755 5755 5755 5755 5755 5755 5755 5754 5754 5754 5753 5753 5752 5751 5750 5749 5748 5746 5745 5743 5742 5740 5739 5737 5735 5734 5732 5730 5729 5727 5725 5723 5721 5719 5716 5714 5712 5709 5707 5704 5701 5698 5695 5691 5688 5684 5680 5677 5673 5670 5666 5662 5659 5655 5651 5647 5644 5640 5636 5633 5629 5625 5621 5618 5614 5608 5603 5600 5595 5589 5582 5575 5568 5561 5556 5550 5545 5543 5534
5745 5745 5746 5747 5747 5747 5748 5748 5748 5748 5748 5748 5748 5748 5747 5746 5746 5746 5745 5744 5743 5742 5740 5739 5737 5736 5735 5733 5732 5730 5729 5727 5725 5724 5722 5720 5718 5716 5714 5712 5710 5708 5705 5703 5700 5698 5695 5691 5688 5684 5681 5677 5673 5670 5666 5663 5659 5655 5652 5648 5644 5640 5636 5632 5628 5625 5622 5618 5613 5610 5606 5601 5595 5590 5586 5581 5573 5566 5560 5552 5547 5541 5534 5531 5528
5737 5738 5738 5739 5739 5740 5740 5741 5741 5741 5741 5741 5741 5740 5740 5739 5739 5738 5738 5737 5735 5734 5733 5731 5730 5729 5728 5726 5725 5723 5722 5720 5719 5717 5715 5714 5712 5710 5708 5706 5703 5701 5699 5696 5694 5691 5688 5684 5681 5677 5673 5670 5667 5663 5660 5657 5652 5648 5644 5640 5637 5633 5629 5625 5621 5618 5614 5611 5606 5601 5598 5593 5587 5581 5577 5572 5565 5558 5552 5544 5537 5531 5522 5515 5513
5730 5730 5731 5731 5732 5732 5733 5733 5734 5734 5734 5734 5733 5733 5732 5732 5732 5731 5730 5729 5727 5727 5726 5725 5724 5722 5721 5720 5718 5717 5715 5714 5712 5710 5709 5707 5705 5704 5701 5699 5697 5694 5692 5690 5687 5684 5681 5677 5674 5670 5667 5663 5660 5656 5653 5649 5645 5641 5637 5633 5629 5625 5622 5618 5614 5611 5607 5603 5598 5593 5589 5585 5579 5573 5567 5563 5558 5551 5545 5537 5528 5520 5512 5503 5497
5723 5723 5724 5724 5725 5725 5725 5726 5726 5726 5726 5726 5726 5726 5725 5725 5724 5723 5722 5721 5720 5720 5719 5717 5716 5715 5714 5712 5711 5710 5709 5707 5706 5704 5702 5701 5699 5697 5694 5692 5690 5688 5685 5683 5680 5677 5674 5670 5667 5664 5660 5657 5653 5650 5646 5642 5638 5634 5629 5625 5622 5618 5614 5610 5607 5604 5599 5596 5591 5585 5580 5576 5570 5565 5559 5553 5549 5544 5538 5532 5523 5515 5505 5495 5486
5716 5716 5716 5717 5718 5718 5718 5719 5719 5719 5719 5718 5718 5718 5718 5717 5716 5715 5715 5714 5713 5712 5711 5710 5709 5708 5707 5706 5705 5703 5702 5700 5699 5697 5696 5694 5692 5690 5688 5685 5683 5681 5678 5676 5672 5670 5667 5664 5660 5657 5654 5651 5647 5643 5639 5635 5631 5626 5622 5618 5615 5611 5607 5603 5599 5595 5591 5587 5583 5577 5571 5566 5561 5556 5550 5545 5540 5534 5529 5523 5516 5510 5501 5490 5479
5708 5709 5709 5709 5710 5710 5711 5711 5711 5711 5711 5711 5711 5711 5710 5709 5709 5708 5708 5707 5706 5705 5704 5703 5702 5701 5700 5699 5698 5697 5695 5694 5692 5690 5688 5687 5685 5683 5681 5678 5676 5674 5671 5668 5665 5663 5660 5657 5653 5650 5647 5644 5640 5636 5632 5628 5624 5620 5615 5611 5608 5604 5600 5596 5591 5587 5583 5578 5573 5568 5562 5557 5552 5547 5542 5537 5531 5525 5519 5513 5506 5501 5494 5485 5475
5702 5702 5702 5702 5702 5703 5703 5703 5703 5703 5704 5704 5704 5703 5702 5702 5702 5701 5701 5701 5700 5699 5698 5697 5696 5695 5694 5693 5691 5690 5688 5687 5685 5683 5681 5680 5678 5676 5674 5671 5669 5666 5664 5661 5658 5656 5653 5650 5647 5643 5640 5637 5634 5630 5626 5622 5617 5613 5609 5605 5601 5597 5593 5589 5584 5580 5575 5570 5565 5560 5555 5549 5544 5540 5534 5529 5523 5517 5511 5504 5498 5492 5486 5479 5471
5695 5695 5695 5695 5696 5696 5696 5696 5696 5696 5697 5696 5696 5696 5696 5696 5696 5696 5696 5695 5694 5693 5692 5691 5690 5688 5687 5686 5684 5683 5681 5679 5678 5676 5674 5673 5670 5668 5666 5664 5662 5659 5657 5654 5651 5649 5646 5643 5639 5636 5633 5630 5627 5623 5619 5615 5611 5607 5603 5599 5595 5591 5587 5582 5576 5572 5567 5562 5557 5552 5547 5542 5536 5531 5526 5520 5514 5508 5503 5497 5490 5484 5477 5471 5465
5688 5688 5689 5689 5689 5689 5689 5690 5690 5690 5690 5690 5690 5690 5690 5690 5690 5690 5690 5689 5688 5687 5686 5684 5683 5682 5680 5678 5677 5675 5674 5672 5671 5669 5667 5665 5663 5661 5659 5657 5655 5652 5650 5647 5644 5642 5639 5636 5632 5629 5625 5622 5620 5616 5613 5609 5605 5601 5598 5594 5589 5585 5581 5576 5570 5564 5559 5554 5549 5544 5539 5534 5529 5523 5518 5512 5505 5499 5494 5489 5483 5476 5469 5461 5456
5681 5682 5682 5683 5683 5684 5684 5684 5684 5684 5684 5684 5684 5685 5684 5684 5684 5684 5683 5682 5681 5680 5679 5677 5676 5674 5673 5671 5669 5668 5666 5665 5664 5662 5660 5658 5655 5653 5652 5650 5648 5645 5643 5640 5638 5635 5632 5629 5625 5621 5618 5616 5613 5610 5606 5602 5599 5595 5592 5588 5584 5579 5574 5569 5564 5558 5552 5547 5542 5537 5532 5526 5521 5515 5510 5504 5498 5492 5486 5481 5475 5468 5461 5455 5448
5676 5676 5677 5677 5678 5678 5679 5679 5679 5679 5679 5679 5679 5679 5678 5678 5678 5677 5676 5675 5674 5673 5671 5670 5669 5667 5666 5664 5663 5661 5660 5658 5657 5655 5653 5650 5648 5646 5645 5643 5641 5638 5636 5633 5631 5628 5625 5621 5618 5614 5611 5609 5606 5603 5600 5596 5593 5589 5585 5582 5577 5572 5567 5563 5558 5552 5547 5541 5536 5531 5525 5519 5514 5509 5503 5497 5491 5485 5480 5474 5467 5460 5454 5449 5443
5670 5670 5671 5671 5672 5672 5673 5673 5673 5673 5673 5673 5673 5672 5672 5671 5670 5670 5669 5668 5666 5665 5664 5663 5662 5661 5659 5658 5656 5654 5653 5651 5649 5648 5646 5643 5641 5639 5638 5636 5634 5631 5629 5627 5624 5621 5617 5614 5611 5608 5605 5602 5600 5597 5593 5590 5586 5582 5579 5575 5570 5566 5561 5556 5551 5546 5541 5535 5530 5524 5519 5513 5508 5502 5497 5491 5485 5479 5473 5466 5460 5453 5447 5441 5436
5665 5665 5666 5666 5666 5666 5667 5667 5667 5667 5667 5666 5666 5665 5665 5664 5663 5663 5662 5661 5660 5659 5658 5657 5655 5654 5653 5651 5650 5648 5645 5644 5642 5640 5638 5636 5634 5632 5631 5629 5627 5624 5622 5619 5617 5613 5610 5607 5603 5601 5598 5596 5593 5590 5586 5583 5579 5575 5572 5568 5563 5559 5554 5549 5545 5540 5535 5529 5523 5518 5512 5506 5501 5496 5490 5485 5479 5472 5466 5460 5453 5447 5441 5433 5427
5660 5661 5661 5660 5660 5660 5660 5660 5660 5660 5660 5659 5659 5658 5658 5657 5657 5656 5655 5654 5653 5652 5651 5650 5649 5648 5646 5645 5643 5641 5638 5636 5635 5633 5631 5629 5627 5625 5623 5621 5619 5617 5615 5612 5609 5606 5603 5599 5596 5594 5591 5589 5586 5583 5579 5575 5572 5568 5564 5560 5556 5551 5547 5543 5538 5533 5528 5523 5517 5511 5506 5500 5495 5489 5484 5479 5473 5467 5460 5453 5447 5441 5435 5426 5419
5654 5655 5654 5654 5654 5654 5654 5654 5654 5653 5653 5653 5652 5652 5651 5651 5650 5649 5649 5648 5647 5645 5644 5643 5642 5641 5639 5638 5636 5634 5632 5629 5627 5625 5623 5621 5620 5618 5616 5614 5611 5609 5607 5605 5601 5598 5595 5592 5589 5586 5584 5582 5579 5575 5571 5568 5564 5561 5556 5552 5548 5544 5539 5535 5531 5526 5521 5516 5510 5505 5499 5494 5488 5483 5478 5473 5468 5461 5454 5447 5441 5436 5429 5421 5413
5648 5648 5648 5648 5648 5648 5648 5648 5648 5647 5647 5647 5646 5646 5645 5644 5644 5643 5642 5641 5640 5639 5638 5637 5635 5634 5632 5631 5629 5627 5625 5622 5620 5617 5615 5614 5613 5611 5608 5606 5604 5602 5600 5597 5594 5591 5588 5585 5582 5579 5577 5574 5571 5568 5564 5560 5557 5553 5549 5545 5540 5536 5532 5528 5523 5519 5514 5509 5504 5498 5493 5488 5482 5477 5472 5467 5461 5455 5449 5443 5437 5431 5425 5418 5411
5643 5643 5643 5643 5642 5642 5642 5642 5642 5642 5641 5641 5640 5639 5639 5638 5637 5636 5636 5635 5633 5632 5631 5630 5628 5626 5625 5623 5622 5620 5618 5615 5613 5610 5608 5607 5605 5603 5600 5599 5597 5595 5592 5589 5586 5584 5581 5578 5574 5572 5569 5567 5563 5560 5557 5553 5549 5545 5541 5537 5533 5529 5525 5520 5516 5511 5507 5502 5497 5492 5487 5482 5477 5472 5466 5461 5455 5450 5445 5439 5433 5427 5421 5415 5409
5638 5637 5637 5637 5637 5637 5637 5636 5636 5635 5635 5634 5634 5633 5633 5632 5631 5630 5629 5628 5627 5626 5624 5622 5621 5619 5618 5616 5614 5612 5610 5608 5606 5603 5601 5600 5597 5595 5593 5592 5590 5587 5584 5582 5579 5576 5573 5570 5567 5564 5562 5559 5556 5553 5549 5546 5542 5538 5534 5530 5526 5521 5517 5513 5509 5504 5500 5495 5490 5486 5480 5476 5471 5466 5460 5454 5449 5444 5440 5435 5429 5423 5417 5412 5407
5632 5632 5632 5632 5631 5631 5631 5630 5629 5629 5629 5628 5628 5627 5626 5625 5624 5623 5622 5621 5620 5619 5617 5615 5614 5612 5610 5608 5606 5604 5603 5601 5599 5597 5595 5593 5590 5589 5587 5585 5582 5579 5576 5574 5572 5569 5566 5562 5559 5556 5554 5551 5548 5545 5542 5538 5535 5530 5526 5522 5518 5514 5510 5505 5501 5497 5493 5488 5484 5479 5474 5469 5464 5459 5454 5448 5443 5438 5434 5429 5423 5418 5412 5408 5403
5627 5626 5626 5626 5625 5625 5624 5624 5623 5623 5622 5621 5621 5620 5619 5618 5617 5616 5615 5614 5613 5611 5610 5608 5606 5604 5602 5601 5599 5597 5596 5594 5591 5589 5587 5586 5584 5583 5580 5578 5575 5572 5569 5567 5564 5561 5558 5554 5551 5549 5546 5543 5540 5537 5533 5530 5526 5522 5518 5514 5510 5506 5502 5497 5493 5489 5485 5481 5477 5471 5466 5461 5457 5451 5446 5441 5437 5432 5427 5422 5417 5412 5407 5402 5398
5621 5621 5620 5620 5619 5619 5618 5617 5617 5616 5615 5614 5613 5612 5611 5611 5610 5608 5607 5606 5605 5604 5602 5600 5598 5596 5594 5593 5592 5590 5589 5586 5583 5581 5580 5579 5577 5575 5573 5570 5568 5565 5562 5559 5556 5553 5550 5546 5543 5541 5538 5535 5532 5528 5524 5521 5518 5513 5510 5506 5501 5497 5493 5489 5485 5481 5477 5473 5468 5464 5458 5453 5448 5443 5439 5435 5431 5425 5421 5416 5412 5407 5402 5397 5392
5615 5614 5614 5613 5613 5612 5611 5611 5610 5609 5608 5607 5606 5605 5604 5603 5602 5601 5600 5598 5597 5596 5594 5592 5590 5588 5587 5585 5584 5582 5581 5578 5575 5574 5573 5571 5569 5567 5565 5562 5559 5556 5553 5551 5547 5545 5542 5538 5535 5533 5530 5527 5523 5519 5515 5512 5509 5505 5501 5497 5493 5488 5485 5481 5476 5472 5468 5464 5460 5455 5450 5444 5440 5436 5432 5429 5424 5419 5414 5410 5406 5401 5396 5391 5387
5608 5607 5607 5606 5606 5605 5604 5604 5603 5602 5601 5600 5599 5598 5597 5596 5594 5593 5592 5591 5589 5588 5586 5585 5583 5581 5579 5577 5575 5574 5572 5569 5567 5565 5564 5562 5560 5558 5555 5552 5549 5547 5545 5542 5539 5536 5533 5529 5527 5525 5522 5518 5514 5511 5506 5503 5500 5496 5492 5488 5484 5480 5476 5472 5468 5464 5460 5456 5451 5447 5441 5436 5432 5429 5425 5421 5417 5413 5408 5404 5400 5396 5391 5386 5381
5601 5600 5600 5599 5598 5598 5597 5596 5595 5595 5594 5592 5591 5590 5589 5588 5586 5585 5584 5583 5582 5580 5579 5577 5574 5572 5570 5568 5566 5564 5563 5560 5558 5556 5555 5553 5551 5548 5546 5543 5540 5538 5537 5534 5530 5527 5524 5521 5519 5516 5512 5509 5505 5502 5497 5494 5490 5486 5482 5479 5475 5470 5467 5463 5459 5455 5452 5448 5443 5438 5434 5429 5425 5421 5418 5414 5410 5406 5402 5398 5394 5391 5386 5382 5377
5594 5593 5593 5592 5591 5591 5590 5589 5588 5587 5586 5585 5584 5583 5581 5580 5579 5577 5576 5574 5573 5571 5570 5568 5566 5564 5562 5560 5557 5555 5553 5551 5550 5547 5545 5543 5541 5539 5536 5534 5531 5530 5528 5525 5521 5518 5515 5513 5510 5507 5503 5500 5496 5492 5488 5484 5480 5476 5472 5469 5465 5461 5457 5454 5451 5447 5443 5439 5434 5430 5426 5422 5418 5414 5411 5407 5403 5399 5396 5392 5388 5385 5381 5377 5372
5587 5586 5586 5585 5584 5584 5583 5582 5581 5580 5579 5577 5576 5575 5573 5572 5570 5569 5567 5565 5564 5562 5560 5559 5557 5555 5553 5550 5548 5546 5544 5542 5541 5538 5536 5534 5532 5529 5527 5525 5522 5520 5518 5515 5511 5508 5506 5504 5500 5497 5493 5490 5486 5482 5479 5475 5471 5467 5463 5460 5456 5452 5448 5445 5442 5438 5434 5429 5426 5422 5419 5415 5411 5407 5404 5400 5397 5393 5390 5386 5382 5379 5376 5372 5368
5580 5579 5579 5578 5577 5576 5575 5574 5573 5572 5571 5569 5568 5567 5565 5564 5562 5560 5559 5557 5555 5553 5551 5549 5547 5545 5543 5541 5539 5537 5535 5533 5531 5529 5527 5525 5523 5520 5518 5516 5512 5510 5508 5505 5501 5498 5497 5494 5490 5487 5483 5480 5476 5473 5469 5466 5462 5458 5454 5451 5447 5443 5439 5436 5433 5429 5425 5421 5418 5414 5411 5407 5404 5400 5397 5393 5390 5387 5384 5381 5377 5373 5370 5366 5362
5573 5572 5571 5570 5569 5568 5567 5566 5565 5564 5563 5561 5560 5559 5557 5555 5554 5552 5550 5548 5547 5545 5543 5540 5538 5536 5534 5532 5530 5528 5526 5524 5522 5520 5518 5515 5513 5511 5509 5506 5503 5500 5498 5495 5491 5488 5486 5484 5480 5477 5473 5470 5467 5463 5460 5456 5453 5449 5445 5442 5439 5435 5431 5427 5424 5420 5416 5413 5410 5406 5403 5399 5396 5392 5389 5386 5383 5380 5377 5374 5371 5367 5364 5361 5357
5565 5564 5563 5562 5561 5560 5559 5558 5557 5556 5554 5553 5552 5550 5549 5547 5546 5544 5542 5540 5538 5536 5534 5532 5530 5528 5526 5524 5521 5519 5517 5515 5513 5512 5509 5506 5504 5502 5500 5497 5494 5492 5489 5486 5481 5478 5476 5474 5470 5466 5463 5460 5457 5454 5450 5446 5443 5440 5436 5433 5429 5426 5422 5418 5415 5411 5408 5404 5401 5398 5395 5391 5388 5385 5382 5379 5376 5373 5371 5368 5365 5362 5359 5355 5352
5557 5556 5555 5554 5553 5552 5551 5550 5549 5547 5546 5545 5543 5542 5540 5539 5537 5535 5534 5532 5530 5528 5526 5524 5522 5520 5517 5515 5512 5509 5507 5506 5505 5503 5500 5498 5495 5493 5491 5488 5485 5482 5479 5476 5472 5468 5466 5463 5460 5456 5453 5450 5447 5444 5440 5436 5433 5430 5427 5423 5419 5416 5412 5409 5405 5402 5399 5396 5392 5389 5386 5383 5380 5377 5374 5371 5369 5367 5364 5362 5359 5357 5353 5350 5346
5547 5547 5546 5545 5544 5543 5542 5541 5540 5539 5538 5536 5535 5533 5531 5530 5528 5526 5525 5523 5521 5519 5517 5515 5513 5511 5508 5506 5503 5501 5498 5497 5495 5493 5491 5489 5486 5484 5481 5479 5475 5471 5468 5465 5462 5458 5456 5453 5450 5446 5443 5440 5437 5433 5430 5426 5423 5419 5416 5413 5409 5406 5402 5399 5396 5393 5390 5387 5384 5381 5378 5375 5372 5369 5366 5364 5362 5360 5358 5355 5353 5350 5348 5344 5341
5538 5537 5536 5535 5535 5534 5533 5532 5531 5530 5529 5527 5525 5524 5522 5521 5519 5517 5516 5514 5512 5511 5509 5507 5504 5502 5499 5496 5494 5491 5489 5488 5485 5483 5481 5479 5477 5474 5471 5468 5465 5461 5457 5454 5451 5448 5445 5442 5439 5436 5433 5429 5426 5423 5420 5416 5413 5410 5406 5403 5399 5396 5392 5389 5387 5384 5380 5378 5375 5372 5369 5366 5364 5361 5358 5356 5355 5353 5351 5349 5346 5344 5341 5338 5335
5528 5527 5526 5525 5525 5524 5523 5522 5521 5520 5518 5517 5515 5514 5512 5511 5510 5508 5506 5505 5503 5501 5499 5497 5495 5492 5489 5487 5484 5482 5480 5478 5476 5473 5471 5469 5466 5463 5460 5457 5454 5450 5446 5443 5439 5436 5434 5431 5427 5424 5421 5418 5414 5412 5409 5406 5403 5400 5396 5393 5389 5385 5382 5379 5377 5374 5371 5368 5365 5363 5360 5357 5355 5353 5351 5349 5347 5345 5343 5341 5339 5337 5335 5332 5330
5518 5517 5516 5515 5514 5513 5512 5511 5510 5509 5507 5506 5505 5503 5502 5501 5499 5498 5497 5495 5493 5491 5489 5487 5484 5482 5479 5476 5474 5471 5470 5468 5465 5463 5460 5458 5455 5452 5449 5446 5442 5438 5435 5431 5428 5424 5422 5419 5416 5413 5410 5407 5403 5401 5398 5395 5392 5389 5385 5382 5378 5375 5371 5369 5366 5364 5361 5358 5355 5353 5351 5349 5346 5344 5343 5341 5339 5337 5336 5334 5332 5331 5329 5326 5324
5508 5507 5506 5505 5504 5503 5502 5501 5500 5498 5497 5496 5494 5493 5491 5490 5488 5487 5485 5484 5482 5480 5478 5476 5473 5471 5468 5466 5463 5460 5459 5456 5454 5451 5449 5447 5444 5441 5438 5434 5430 5426 5423 5420 5416 5413 5411 5409 5405 5402 5399 5396 5393 5390 5387 5384 5381 5378 5375 5371 5367 5364 5361 5358 5356 5354 5351 5347 5345 5343 5342 5340 5338 5336 5334 5333 5331 5330 5328 5327 5325 5324 5322 5320 5318
5498 5497 5496 5495 5494 5493 5492 5491 5489 5488 5486 5485 5483 5482 5480 5478 5477 5475 5473 5471 5470 5468 5466 5464 5461 5459 5457 5455 5452 5450 5447 5445 5442 5440 5437 5435 5432 5429 5426 5422 5418 5415 5412 5408 5405 5402 5400 5397 5394 5391 5387 5384 5381 5378 5376 5373 5370 5367 5364 5360 5357 5353 5350 5348 5346 5343 5340 5337 5335 5333 5331 5330 5328 5327 5326 5325 5323 5322 5321 5320 5318 5317 5315 5313 5311
5488 5487 5486 5485 5484 5483 5481 5480 5478 5477 5475 5473 5472 5470 5468 5467 5465 5463 5461 5460 5458 5456 5454 5452 5450 5447 5445 5443 5440 5438 5435 5433 5430 5428 5425 5422 5419 5416 5413 5409 5406 5403 5400 5397 5393 5390 5388 5385 5382 5379 5375 5372 5369 5366 5364 5362 5359 5356 5353 5350 5346 5342 5340 5338 5335 5333 5330 5328 5326 5323 5321 5320 5319 5318 5317 5316 5315 5314 5313 5312 5311 5310 5308 5306 5305
5477 5476 5475 5474 5473 5471 5470 5469 5467 5465 5464 5462 5460 5459 5457 5455 5453 5452 5450 5448 5446 5444 5442 5440 5437 5435 5433 5430 5428 5425 5422 5420 5418 5415 5413 5410 5407 5404 5400 5396 5394 5391 5388 5385 5382 5379 5376 5373 5370 5366 5363 5359 5357 5354 5352 5349 5347 5344 5342 5338 5335 5331 5329 5327 5325 5322 5320 5318 5316 5314 5312 5311 5310 5309 5308 5307 5307 5306 5305 5304 5303 5302 5301 5299 5298
5465 5464 5463 5462 5461 5459 5458 5457 5455 5453 5452 5450 5449 5447 5445 5443 5441 5439 5437 5435 5433 5431 5429 5427 5424 5422 5420 5417 5415 5412 5409 5407 5405 5403 5400 5397 5394 5391 5387 5384 5381 5378 5376 5373 5370 5367 5363 5360 5357 5353 5350 5347 5344 5341 5339 5337 5335 5332 5330 5327 5323 5320 5318 5316 5314 5312 5310 5308 5307 5305 5303 5301 5300 5299 5299 5298 5298 5297 5297 5296 5295 5295 5294 5292 5291
5453 5452 5451 5450 5448 5447 5446 5445 5443 5441 5440 5438 5437 5435 5433 5431 5429 5427 5425 5422 5420 5418 5416 5413 5411 5409 5406 5404 5401 5398 5396 5394 5392 5389 5387 5385 5382 5379 5375 5372 5368 5366 5363 5360 5357 5354 5350 5347 5343 5340 5337 5333 5331 5328 5326 5323 5321 5319 5317 5315 5312 5309 5307 5305 5302 5301 5299 5298 5297 5295 5294 5292 5291 5290 5290 5290 5289 5289 5289 5288 5287 5287 5286 5285 5284
5442 5440 5439 5438 5436 5435 5434 5432 5431 5429 5427 5426 5424 5422 5420 5418 5416 5414 5412 5409 5407 5405 5402 5400 5398 5395 5393 5390 5388 5385 5383 5381 5378 5376 5373 5371 5368 5365 5363 5359 5356 5353 5350 5347 5344 5340 5337 5334 5330 5326 5323 5320 5317 5315 5312 5310 5308 5306 5304 5302 5301 5299 5296 5294 5292 5290 5289 5288 5287 5285 5284 5283 5282 5282 5281 5281 5281 5281 5280 5280 5280 5279 5278 5277 5277
5429 5428 5427 5425 5424 5423 5421 5420 5418 5416 5414 5413 5411 5409 5407 5405 5403 5400 5398 5396 5394 5391 5389 5387 5384 5382 5379 5377 5374 5372 5369 5367 5364 5362 5359 5357 5354 5352 5349 5346 5343 5340 5336 5333 5330 5327 5324 5320 5316 5312 5309 5306 5303 5301 5298 5296 5294 5293 5291 5290 5289 5287 5285 5283 5282 5280 5279 5278 5277 5275 5274 5274 5273 5273 5273 5273 5273 5273 5272 5272 5272 5271 5271 5270 5270